Charleston, SC

9:08 AM EDT on April 26, 2018 (GMT -0400)
Charleston Air Force Base-International

Weather History for KCHS - March, 2014

Change the Weather History Date:

Thursday, March 13, 2014

  Actual Average Record
Temperature  
Mean Temperature 49 °F 58 °F  
Max Temperature 57 °F 69 °F 88 °F (1955)
Min Temperature 39 °F 46 °F 22 °F (1998)
Degree Days  
Heating Degree Days 16 8  
Month to date heating degree days 124  
Since 1 July heating degree days 1760  
Cooling Degree Days 0 1  
Month to date cooling degree days 11  
Year to date cooling degree days 18  
Moisture  
Dew Point 22 °F    
Average Humidity 33    
Maximum Humidity 53    
Minimum Humidity 10    
Precipitation  
Precipitation 0.00 in 0.12 in 1.85 in (1980)
Month to date precipitation 1.52  
Year to date precipitation 8.19  
Sea Level Pressure  
Sea Level Pressure 30.03 in    
Wind  
Wind Speed 15 mph (NW)    
Max Wind Speed 23 mph    
Max Gust Speed 33 mph    
Visibility 10 miles    
Events      
T = Trace of Precipitation, MM = Missing Value Source: NWS Daily Summary

Daily Weather History Graph

Daily Weather History Graph

Search for Another Location

Airport or City:

Astronomy

Mar. 13, 2014 Rise Set
Actual Time 7:33 AM EDT 7:26 PM EDT
Civil Twilight 7:08 AM EDT 7:51 PM EDT
Nautical Twilight 6:39 AM EDT 8:19 PM EDT
Astronomical Twilight 6:11 AM EDT 8:48 PM EDT
Moon 4:57 PM EDT (3/13) 5:31 AM EDT (3/13)
Length of Visible Light 12h 42m
Length of Day
11h 53m
Waxing Gibbous, 91% of the Moon is Illuminated
Mar 13
Waxing Gibbous
Mar 16
Full
Mar 23
Last Quarter
Mar 30
New
Apr 7
First Quarter

Hourly Weather History & Observations

Time (EDT) Temp. Windchill Dew Point Humidity Pressure Visibility Wind Dir Wind Speed Gust Speed Precip Events Conditions
12:56 AM 53.1 °F - 33.1 °F 47% 29.75 in 10.0 mi WNW 23.0 mph 33.4 mph N/A   Clear
1:56 AM 51.1 °F - 30.0 °F 44% 29.78 in 10.0 mi WNW 18.4 mph 28.8 mph N/A   Clear
2:56 AM 50.0 °F - 28.9 °F 44% 29.81 in 10.0 mi WNW 13.8 mph 23.0 mph N/A   Clear
3:56 AM 48.0 °F - 27.0 °F 44% 29.82 in 10.0 mi WNW 15.0 mph 21.9 mph N/A   Clear
4:56 AM 46.0 °F 40.2 °F 28.0 °F 50% 29.84 in 10.0 mi WNW 12.7 mph 23.0 mph N/A   Clear
5:56 AM 45.0 °F 38.2 °F 24.1 °F 44% 29.89 in 10.0 mi WNW 15.0 mph 23.0 mph N/A   Clear
6:56 AM 44.1 °F 38.1 °F 23.0 °F 43% 29.94 in 10.0 mi WNW 11.5 mph 21.9 mph N/A   Clear
7:56 AM 43.0 °F 36.4 °F 23.0 °F 45% 29.99 in 10.0 mi NW 12.7 mph - N/A   Clear
8:56 AM 45.0 °F 39.3 °F 21.9 °F 40% 30.01 in 10.0 mi NW 11.5 mph - N/A   Clear
9:56 AM 48.0 °F - 21.0 °F 34% 30.04 in 10.0 mi NW 17.3 mph 24.2 mph N/A   Clear
10:56 AM 50.0 °F - 21.0 °F 32% 30.05 in 10.0 mi NW 16.1 mph 20.7 mph N/A   Clear
11:56 AM 51.1 °F - 19.0 °F 28% 30.06 in 10.0 mi NNW 13.8 mph 26.5 mph N/A   Clear
12:56 PM 54.0 °F - 18.0 °F 24% 30.07 in 10.0 mi NW 15.0 mph 26.5 mph N/A   Clear
1:56 PM 55.0 °F - 19.0 °F 24% 30.06 in 10.0 mi NNW 13.8 mph 25.3 mph N/A   Clear
2:56 PM 57.0 °F - 18.0 °F 22% 30.06 in 10.0 mi NNW 16.1 mph 23.0 mph N/A   Clear
3:56 PM 57.0 °F - 17.1 °F 21% 30.07 in 10.0 mi NNW 15.0 mph 24.2 mph N/A   Clear
4:56 PM 57.9 °F - 17.1 °F 20% 30.08 in 10.0 mi NNW 15.0 mph 21.9 mph N/A   Clear
5:56 PM 55.9 °F - 12.9 °F 18% 30.11 in 10.0 mi NNW 16.1 mph - N/A   Clear
6:56 PM 53.1 °F - 15.1 °F 22% 30.14 in 10.0 mi NNW 13.8 mph - N/A   Clear
7:56 PM 48.0 °F - 16.0 °F 28% 30.17 in 10.0 mi North 6.9 mph - N/A   Clear
8:56 PM 46.9 °F - 16.0 °F 29% 30.20 in 10.0 mi North 5.8 mph - N/A   Clear
9:56 PM 45.0 °F - 19.9 °F 37% 30.23 in 10.0 mi Calm Calm - N/A   Clear
10:56 PM 41.0 °F - 24.1 °F 51% 30.24 in 10.0 mi Calm Calm - N/A   Clear
11:56 PM 39.9 °F - 24.1 °F 53% 30.26 in 10.0 mi Calm Calm - N/A   Clear